Location: Finkenbach
(49.5340°N, 8.9188°E)
Time: 15:46:44
(UTC+00:00)

SL-24 R/B - RUBIN 2 - Pass Details

Date: 17 June 2025
Orbit: 590 x 997 km, 64.6° (Epoch: 19 July)

Event Time Altitude Azimuth Distance (km) Brightness Sun altitude
Rises 23:42:00 0° 319° (NW) 3,208 7.9 -17.0°
Reaches altitude 10° 23:44:30 10° 319° (NW) 2,215 7.0 -16.9°
Maximum altitude 23:49:30 84° 231° (SW) 674 3.6 -16.9°
Enters shadow 23:52:20 23° 145° (SE) 1,354 4.9 -16.8°
